Tracking 28794 objects as of 19-Apr-2024
HD Live streaming from Space Station
objects crossing your sky now

FENGYUN 1C DEB

Track FENGYUN 1C DEB now!
10-day predictions


NORAD ID: 30860
Int'l Code: 1999-025AWW
Perigee: 804.1 km
Apogee: 870.3 km
Inclination: 98.9 °
Period: 101.5 minutes
Semi major axis: 7208 km
RCS: 0.0064 m2 (small)
Launch date: May 10, 1999
Source: People's Republic of China (PRC)
Launch site: Taiyaun Space Center, China (TSC)

Note: This is SATELLITE DEBRIS
Your satellite tracking list
Your tracking list is empty




NASA's NSSDC Master Catalog

Two Line Element Set (TLE):
1 30860U 99025AWW 24110.12831864  .00007611  00000-0  36544-2 0  9992
2 30860  98.9415 170.1335 0045880 120.6879 239.8829 14.18606147879499
Source of the keplerian elements: AFSPC